SKYNET 5C

Last updated on Fri Jul 11 2025 00:02:42 GMT+0000 (Coordinated Universal Time)

1 33055U 08030A 25191.41536920 -.00000130 00000+0 00000+0 0 9998 2 33055 2.9089 81.1307 0005020 23.2558 315.9210 1.00271250 62522
UTC large
Height (km)
Speed (km/s)
/
Latitude / Longitude
Inclination (degrees)
Orbital Period (minutes)
Azimuth
Elevation
Range (km)
Doppler Factor

Next 0 passes for location: London (51.5072 / 0.1276)

Sorry there are no passes over London.